Terminal Aerodrome Forecast
Issued by NWS

Home | Current Version | Previous Version | Text Only | Print | Product List | Glossary On
Versions: 1 2 3 4 5 6 7 8 9 10 11 12 13 14 15 16 17 18 19 20 21 22 23 24 25 26 27 28 29 30
000
FTUS45 KTFX 152323
TAFBZN
TAF
KBZN 152323Z 1600/1706 VRB05KT P6SM SCT100
      TEMPO 1600/1602 VRB20G35KT 5SM TSRA SCT025 BKN060CB
     FM161700 VRB04KT P6SM SCT050 SCT110 PROB30 1620/1702 5SM TSRA
      BKN050CB=

USA.gov is the U.S. government's official web portal to all federal, state and local government web resources and services.